Location: Alphen
(52.1351°N, 4.6549°E)
Time: 02:02:46
(UTC+00:00)

Cosmos 2263 - Pass Details

Date: 27 January 2021
Orbit: 832 x 865 km, 70.9° (Epoch: 26 February)

Event Time Altitude Azimuth Distance (km) Brightness Sun altitude
Exits shadow 06:30:25 - 324° (NW) 2,930 6.5 -9.0°
Reaches altitude 10° 06:31:40 10° 322° (NW) 2,470 6.1 -8.9°
Maximum altitude 06:37:07 51° 248° (WSW) 1,055 4.5 -8.1°
Drops below altitude 10° 06:42:36 10° 174° (S) 2,475 7.0 -7.3°
Sets 06:45:06 0° 169° (S) 3,412 7.8 -6.9°
